Weather in Turgenevo

Russia / Tula Oblast     53°22′39″N   37°17′41″E
temp.,
°C
wind,
m/s
gust,
m/s
humid.,
%
clouds,
%
prec.,
mm/h
press.,
hPa
HPBL,
m
18 april, sun
sun1800:00+6s3493100 0.4 1018302
03:00+4sw2494100 0.4 1018178
06:00+4wsw119411 0.0 101812
09:00+7ene227688 0.0 1018459
12:00+8se4579100 1.3 10181013
15:00+9ese2371100 2.6 10181011
18:00+9ese2370100 0.2 1018381
21:00+7ene3678100 0.9 1018130
19 april, mon
mon1900:00+6ne368750 0.3 1018156
03:00+6nne599542 0.4 1018338
06:00+6ne61097100 0.1 1018417
09:00+7ene6989100 0.1 1019714
12:00+6ne6893100 0.8 1019791
15:00+4ne71196100 0.9 1020613
18:00+2ne61197100 0.4 1020538
21:00+2ne61197100 0.9 1020510
20 april, tue
tue2000:00+2ne5997100 0.8 1019438
03:00+2ne4898100 1.0 1018383
06:00+4e369997 0.1 1016258
09:00+6ese479251 0.1 1016393
12:00+8e7987100 0.6 1015865
15:00+7e81391100 0.9 1012830
18:00+6ene91693100 2.6 1009928
21:00+4e112194100 15.6 10041451
21 april, wed
wed2100:00+6ese111995100 2.4 998770
03:00+9se91591100 4.5 996781
06:00+6sse91591100 0.6 9971157
09:00+3ssw101596100 1.3 1000895
12:00+3sw91596100 0.5 1004771
15:00+4sw91388100 0.6 10081100
18:00+5sw71286100 0.1 10111177
21:00+5sw51187100 0.1 1014531
22 april, thu
thu2200:00+5ssw51084100 0.0 1016322
03:00+4ssw4884100 0.0 1018215
06:00+4ssw47915 0.1 1019173
09:00+8ssw577752 0.1 1020468
12:00+12ssw686427 0.6 10201230
15:00+13ssw786179 1.9 10201502
18:00+12ssw58688 0.5 1020906
21:00+9s51179100 1.3 1021351